{"data":{"norad_id":57177,"epoch":"2026-05-25T04:22:10.333920Z","epoch_age_seconds":52568,"freshness":"FRESH","line1":"1 57177U 23091M   26145.18206405  .00006698  00000+0  30849-3 0  9991","line2":"2 57177  97.5105 204.2246 0013254 189.8491 170.2486 15.20550802160509","mean_motion":15.20550802,"eccentricity":0.0013254,"inclination_deg":97.5105,"raan_deg":204.2246,"arg_perigee_deg":189.8491,"mean_anomaly_deg":170.2486,"bstar":0.00030849,"rev_number":16050,"period_min":94.702524776282,"perigee_km":495.05626525469,"apogee_km":513.29990608379,"semimajor_km":6882.3150856692,"source":"CELESTRAK","updated_at":"2026-05-25T13:37:59.907488Z"}}